Find Kosmos-2144

NORAD ID: 21300 Int'l Des: 1991-033 Owner: UNKSR Country: SU operational
LEOCIRCULARPOLAR

Current View

Loading 3D Globe...

About Kosmos-2144

Description loading...

Upcoming Passes

Passes for default location (London). Set your location on the main map for personalized predictions.

Altitude History

Loading altitude history...

Two-Line Element Set

1 21300U 91033B 26149.53195618 .00000039 00000-0 15631-3 0 9993
2 21300 82.5777 341.2905 0005522 145.4611 214.6839 12.62392347614108
Epoch: May 29, 2026 • Age: 18 hours

Current Status

Altitude 1413.0 km
Velocity 7.16 km/s
Sub-Earth Point 33.08°N, 168.28°E
Launch Date May 16, 1991
Age 35 years
Type other

Technical Details

Classification Payload
Mass 225.00 kg
Dry Mass 225.00 kg
Total Mass 225.00 kg
Length 1.60 m
Diameter 0.80 m
Span 7.00 m
Shape Cyl + Ant
Manufacturer NPOPM
Bus Type Strela-3
Phase Status In Orbit
Owner/State UNKSR/SU

Most Searched